Home   Weather   Porsgrunn   Past weeks

Flag for Norway Past Weather in Porsgrunn, Norway — Yesterday and Last 2 Weeks

Now
33 °F

Chilly.


Feels Like: 33 °F
Forecast: 25 / 33 °F
Wind: 1 mph from Northwest

Location: Jomfruland Fyr

Current Time: Jan 22, 2017 at 5:02:51 am

Latest Report: Jan 22, 2017 at 4:00 am


Visibility: N/A

Pressure: 30.30 "Hg

Humidity: 97%

Dew Point: 32 °F

Location of PorsgrunnLocation

Past Weather in Porsgrunn — Graph

°F

Porsgrunn Temperature Yesterday

Maximum temperature yesterday: 44 °F (at 1:00 pm)
Minimum temperature yesterday: 32 °F (at 10:00 pm)
Average temperature yesterday: 38 °F

High & Low Weather Summary for the Past Weeks

 TemperatureHumidityPressure
High48 °F (Jan 19, 3:00 pm)98% (Jan 18, 9:00 am)30.48 "Hg (Jan 18, 9:00 am)
Low24 °F (Jan 16, 6:00 am)43% (Jan 15, 2:00 pm)28.50 "Hg (Jan 11, 2:00 pm)
Average37 °F81%29.90 "Hg
* Reported Jan 7 3:00 am — Jan 22 3:00 am, Porsgrunn, Weather by CustomWeather, © 2017

Note: Actual official high and low records may vary slightly from our data, if they occured in-between our weather recording intervals... More about our weather records

Advertising

Porsgrunn Weather History for the Previous 24 Hours

Scroll right to see more
 ConditionsComfort  
Time TempWeatherWind HumidityBarometerVisibility
3:00 am
Sun, Jan 22
33 °FChilly.1 mph97%30.32 "HgN/A
2:00 am32 °FChilly.No wind96%30.33 "HgN/A
1:00 am31 °FChilly.1 mph96%30.34 "HgN/A
12:00 am31 °FChilly.1 mph96%30.35 "HgN/A
11:00 pm
Sat, Jan 21
32 °FChilly.1 mph95%30.36 "HgN/A
10:00 pm32 °FChilly.1 mph96%30.36 "HgN/A
9:00 pm33 °FChilly.1 mph95%30.36 "HgN/A
8:00 pm33 °FChilly.1 mph95%30.36 "HgN/A
7:00 pm33 °FChilly.2 mph93%30.37 "HgN/A
6:00 pm34 °FChilly.1 mph93%30.37 "HgN/A
5:00 pm36 °FChilly.1 mph89%30.36 "HgN/A
4:00 pm40 °FChilly.1 mph81%30.36 "HgN/A
3:00 pm42 °FQuite cool.1 mph80%30.36 "HgN/A
2:00 pm43 °FQuite cool.1 mph75%30.37 "HgN/A
1:00 pm44 °FQuite cool.1 mph73%30.37 "HgN/A
12:00 pm44 °FQuite cool.1 mph73%30.38 "HgN/A
11:00 am41 °FQuite cool.3 mph81%30.38 "HgN/A
10:00 am39 °FChilly.2 mph82%30.38 "HgN/A
9:00 am38 °FChilly.2 mph85%30.37 "HgN/A
8:00 am38 °FChilly.1 mph84%30.36 "HgN/A
7:00 am38 °FChilly.2 mph85%30.35 "HgN/A
6:00 am39 °FChilly.1 mph81%30.36 "HgN/A
5:00 am39 °FChilly.1 mph81%30.36 "HgN/A
Weather by CustomWeather, © 2017

See weather overviewHow to use our weather pages